User: anonymous   Login
Location: Newark
(25.0000°N, 73.5000°E)
Time: 16:31:32
(UTC+00:00)
Language:

FENGYUN 1C DEB - Orbit

View from above orbital plane
View from above orbital plane
View from above satellite
View from above satellite

Ground track
Ground track

The orbit data is extracted from the following two-line orbital elements,

1 29754U 99025AU  21174.73868509  .00000204  00000-0  13545-3 0  9990
2 29754  98.8925 265.4532 0040034 194.9168 316.1375 14.11763743742686
Epoch (UTC): 23 June 2021 17:43:42
Eccentricity: 0.0040034
inclination: 98.8925°
perigee height: 824 km
apogee height: 882 km
right ascension of ascending node: 265.4532°
argument of perigee: 194.9168°
revolutions per day: 14.11763743
mean anomaly at epoch: 316.1375°
orbit number at epoch: 74268

The dashed part of the orbit path shows where the satellite is in the earth's shadow,  

DLR